Torna al catalogo

COSMOS 886 DEB

AttivoLEO
NORAD 9963·DEBRIS·🇷🇺 Russia

Lanciato Dec 27, 1976 da Baikonur Cosmodrome

Loading…

Prossimi Passaggi (prossime 24 ore)

TLE

AggiornatoSource: Space-Track

Epoca: Sep 14, 2026, 14:33 UTC

1 09963U 76126BD  26257.60692314  .00000746  00000-0  26288-3 0  9998
2 09963  65.7934 313.9817 0770534  30.6999 333.6860 13.38560238365942

Traccia COSMOS 886 DEB in tempo reale con AllMySat

Download on the App Store